星链-32586 (STARLINK-32586)

导读 | 星芒AI

STARLINK-32586 是 SpaceX Starlink 卫星互联网项目中的一颗低轨卫星,属于第5批部署的星链卫星之一。该卫星于2022年发射,运行在约550公里高度的近地轨道,旨在为全球提供高速互联网服务。Starlink 项目致力于构建由数千颗卫星组成的星座,以实现全球覆盖,尤其关注偏远和网络基础设施薄弱地区。STARLINK-32586 采用先进通信技术,支持低延迟、高带宽的数据传输,是推动全球互联网普及的重要组成部分。

基本信息
目录编号:
61975
目录名称:
STARLINK-32586
国际标识:
2024-210S
轨道中心:
EARTH
卫星名称:
星链-32586
卫星全名:
星链-32586 (STARLINK-32586)
卫星状态:
在轨 (已飞行401 天)
发射日期:
2024-11-14 UTC
国别 :
美国 (US)
星等 :
--
轨道信息
数据来源 国际轨道数据
星历时间: 2025-12-20T03:32:49+0800
14小时前
查看轨道信息
半长轴: 6861.146km
偏心率: 0.000113
轨道倾角: 42.997°
近地点辐角 41.922°
升交点赤经 270.955°
平近点角 318.172°
近地点: 482.233km
远地点: 483.785km
周期: 94.266分钟
每日圈数: 15.275934
详细信息
固有亮度:
5
最大亮度:
2.5
卫星平台:
Starlink V1.0
覆盖范围:
全球
运营商:
太空探索技术公司
运营商所在国:
美国
制造商(研发单位):
太空探索技术公司
制造商所在国:
美国
使用方式:
暂无
卫星简介
Starlink 计划是 SpaceX 推出的全球卫星互联网项目,通过发射低轨道卫星,为全球尤其是偏远地区提供高速、低延迟的互联网服务。自 2019 年起,Starlink 已部署数千颗卫星,旨在缩小全球数字鸿沟,推动互联网普及。该项目还为军事、航空等行业提供通信支持,带来广泛经济效益。
2D轨道图
3D轨道图
轨道高度分析图
轨道倾角分析图
轨道综合分析图
查看轨道综合分析图